User: anonymous
Location: Unspecified
(0.0000°N, 0.0000°E)
Time: 23:04:32
(UTC+02:00)
Language:

Ariane H10 - Orbit

View from above orbital plane
View from above orbital plane
View from above satellite
View from above satellite

Ground track
Ground track

The orbit data is extracted from the following two-line orbital elements,

1 21815U 91084C   14244.29551733  .00000195  00000-0  59233-3 0  6143
2 21815 003.7261 139.0174 7198220 325.9187 213.9181 02.31104505188707
Epoch (UTC): 01 September 2014 07:05:32
Eccentricity: 0.7198220
inclination: 3.7261°
perigee height: 392 km
apogee height: 35182 km
right ascension of ascending node: 139.0174°
argument of perigee: 325.9187°
revolutions per day: 2.31104505
mean anomaly at epoch: 213.9181°
orbit number at epoch: 18870

The dashed part of the orbit path shows where the satellite is in the earth's shadow,  

DLR